• Join FlightAware (Why Join?)
  • Login
  • US Flag 
06:52PM EDT


 

Airport Tracker/Info


-or-


 

Live Flight TrackerFlight Track Log ✈ N27XP ✈ 24-Jun-2013 ✈ KRYY - KSOP

Flight Track Log - Related Links

Times and Time Zones

All times are in EDT time to prevent confusion due to time zone crossing. See the N27XP flight status page for this flight to view local times or setup timezone preferences in your user account.

Time Position Orientation Groundspeed Altitude Reporting Facility
EDT Latitude Longitude Course Direction KTS MPH feet Rate Location/Type
12:11PM 34.0000 -84.6333 195° South 192 221 2,500  Level Atlanta TRACON
12:12PM 33.9500 -84.6500 195° South 181 208 5,500 1,800 Climbing Atlanta TRACON
12:13PM 33.9333 -84.6000 112° Southeast 230 265 6,100 1,500 Climbing Atlanta TRACON
12:14PM 33.9333 -84.5167 90° East 252 290 8,500 2,460 Climbing Atlanta TRACON
12:15PM 33.8939 -84.4217 117° Southeast 259 298 11,700 1,920 Climbing Atlanta Center
12:16PM 33.8647 -84.3364 112° Southeast 273 314 12,800 1,200 Climbing Atlanta Center
12:17PM 33.8650 -84.2414 90° East 292 336 14,100 1,560 Climbing Atlanta Center
12:18PM 33.8881 -84.1289 76° East 310 357 16,000 1,800 Climbing Atlanta Center
12:19PM 33.9236 -84.0189 69° East 332 382 17,700 1,320 Climbing Atlanta Center
12:20PM 33.9653 -83.9061 66° East 355 409 18,700 1,200 Climbing Atlanta Center
12:21PM 34.0028 -83.7858 69° East 376 433 20,100 1,380 Climbing Atlanta Center
12:22PM 34.0233 -83.6603 79° East 371 427 21,500 1,320 Climbing Atlanta Center
12:23PM 34.0436 -83.5325 79° East 379 436 22,800 1,200 Climbing Atlanta Center
12:24PM 34.0639 -83.3894 80° East 384 442 24,000 1,020 Climbing Atlanta Center
12:25PM 34.0881 -83.2586 77° East 395 455 24,900 480 Climbing Atlanta Center
12:26PM 34.1289 -83.1328 69° East 395 455 25,000  Climbing Atlanta Center
12:27PM 34.1656 -82.9969 72° East 407 468 25,000  Level Atlanta Center
12:28PM 34.2081 -82.8658 69° East 414 476 25,000  Level Atlanta Center
12:29PM 34.1888 -82.8614 69° East  Level FlightAware Approximate
12:29PM 34.2528 -82.7294 68° East 435 501 25,000  Level Atlanta Center
12:30PM 34.2869 -82.6158 70° East 435 501 25,000  Level Atlanta Center
12:31PM 34.3269 -82.4667 72° East 430 495 25,000  Level Atlanta Center
12:32PM 34.3542 -82.3253 77° East 430 495 25,000  Level Atlanta Center
12:33PM 34.3833 -82.1786 76° East 430 495 25,000  Level Atlanta Center
12:34PM 34.4208 -82.0369 72° East 435 501 25,000 -60 Level Atlanta Center
12:35PM 34.4686 -81.8997 67° East 435 501 24,900 -480 Descending Atlanta Center
12:36PM 34.5225 -81.7622 65° Northeast 440 506 24,100 -480 Descending Atlanta Center
12:37PM 34.5656 -81.6247 69° East 440 506 24,000 -60 Descending Atlanta Center
12:38PM 34.6108 -81.4822 69° East 440 506 24,000  Level Atlanta Center
12:39PM 34.6578 -81.3317 69° East 435 501 24,000  Level Atlanta Center
12:40PM 34.6983 -81.1914 71° East 435 501 24,000 -120 Level Atlanta Center
12:41PM 34.7450 -81.0533 68° East 440 506 23,800 -540 Descending Atlanta Center
12:42PM 34.7922 -80.9353 64° Northeast 427 491 23,000 -420 Descending Atlanta Center
12:43PM 34.8642 -80.8086 55° Northeast 437 503 23,000 -480 Level Atlanta Center
12:44PM 34.9339 -80.6869 55° Northeast 444 511 22,100 -1,020 Descending Atlanta Center
12:45PM 34.9864 -80.5503 65° Northeast 439 505 21,000 -1,800 Descending Atlanta Center
12:46PM 35.0328 -80.4192 67° East 428 493 18,500 -2,400 Descending Atlanta Center
12:47PM 35.0683 -80.2831 72° East 419 482 16,300 -1,800 Descending Atlanta Center
12:48PM 35.1081 -80.1542 69° East 406 467 15,000 -780 Descending Atlanta Center
12:49PM 35.1594 -79.9994 68° East 384 442 14,700 -1,380 Descending Atlanta Center
12:51PM 35.2000 -79.8444 72° East 373 429 11,500 -2,760 Descending Washington Center
12:52PM 35.2292 -79.7239 73° East 352 405 8,200 -3,240 Descending Washington Center
12:53PM 35.2531 -79.6386 71° East 305 351 5,200 -2,520 Descending Washington Center
12:54PM 35.2725 -79.5583 73° East 271 312 3,200 -1,980 Descending Washington Center